San Juan, PR

5:01 PM AST on May 23, 2017 (GMT -0400)
Luis Munoz Marin International

Weather History for TJSJ - November, 2010

Change the Weather History Date:

Friday, November 19, 2010

  Actual Average Record
Temperature  
Mean Temperature 79 °F 80 °F  
Max Temperature 84 °F 86 °F 91 °F (1992)
Min Temperature 73 °F 75 °F 67 °F (1952)
Degree Days  
Heating Degree Days 0 0  
Month to date heating degree days 0 0  
Since 1 July heating degree days 0 0  
Cooling Degree Days 14 15  
Month to date cooling degree days 294 303  
Year to date cooling degree days 5455 5262  
Growing Degree Days 28 (Base 50)    
Moisture  
Dew Point 69 °F    
Average Humidity 71    
Maximum Humidity 87    
Minimum Humidity 55    
Precipitation  
Precipitation 0.15 in 0.20 in 3.32 in (1917)
Month to date precipitation 6.80 4.22  
Year to date precipitation 80.88 49.20  
Snow  
Snow 0.00 in 0.00 in - ()
Month to date snowfall 0.0 0.0  
Since 1 July snowfall 0.0 0.0  
Since 1 September snowfall 0.0 0.0  
Snow Depth 0.00 in    
Sea Level Pressure  
Sea Level Pressure 29.93 in    
Wind  
Wind Speed 7 mph (ENE)    
Max Wind Speed 16 mph    
Max Gust Speed 20 mph    
Visibility 9 miles    
Events Rain    
T = Trace of Precipitation, MM = Missing Value Source: NWS Daily Summary

Daily Weather History Graph

Daily Weather History Graph

Search for Another Location

Airport or City:

Trip Planner

Search our weather history database for the weather conditions in past years. The results will help you decide how hot, cold, wet, or windy it might be!

Date:

Astronomy

Nov. 19, 2010 Rise Set
Actual Time 6:32 AM AST 5:45 PM AST
Civil Twilight 6:09 AM AST 6:09 PM AST
Nautical Twilight 5:43 AM AST 6:35 PM AST
Astronomical Twilight 5:16 AM AST 7:01 PM AST
Moon 4:10 PM AST (11/19) 4:33 AM AST (11/19)
Length of Visible Light 11h 59m
Length of Day
11h 13m
Waxing Gibbous, 96% of the Moon is Illuminated
Nov 19
Waxing Gibbous
Nov 21
Full
Nov 28
Last Quarter
Dec 5
New
Dec 13
First Quarter

Hourly Weather History & Observations

Time (AST) Temp. Heat Index Dew Point Humidity Pressure Visibility Wind Dir Wind Speed Gust Speed Precip Events Conditions
12:56 AM 75.9 °F - 71.1 °F 85% 29.95 in 10.0 mi Calm Calm - N/A   Scattered Clouds
1:56 AM 75.9 °F - 71.1 °F 85% 29.93 in 10.0 mi SW 3.5 mph - N/A   Mostly Cloudy
2:56 AM 75.0 °F - 70.0 °F 84% 29.91 in 10.0 mi Calm Calm - N/A   Scattered Clouds
3:56 AM 75.0 °F - 69.1 °F 82% 29.90 in 10.0 mi Calm Calm - N/A   Scattered Clouds
4:56 AM 73.9 °F - 69.1 °F 85% 29.89 in 10.0 mi Calm Calm - N/A   Mostly Cloudy
5:29 AM 73.4 °F - 69.8 °F 88% 29.90 in 1.8 mi West 4.6 mph - 0.06 in Rain Heavy Rain
5:36 AM 73.4 °F - 69.8 °F 88% 29.90 in 7.0 mi West 4.6 mph - 0.09 in Rain Light Rain
5:56 AM 75.0 °F - 71.1 °F 87% 29.90 in 10.0 mi North 8.1 mph - 0.09 in   Mostly Cloudy
6:56 AM 75.9 °F - 72.0 °F 87% 29.91 in 7.0 mi South 3.5 mph - 0.05 in   Mostly Cloudy
7:56 AM 75.0 °F - 72.0 °F 90% 29.94 in 9.0 mi ESE 3.5 mph - 0.00 in   Mostly Cloudy
8:56 AM 77.0 °F - 72.0 °F 84% 29.96 in 9.0 mi SSE 3.5 mph - 0.01 in   Mostly Cloudy
9:56 AM 80.1 °F 83.8 °F 72.0 °F 76% 29.96 in 10.0 mi East 4.6 mph - N/A   Scattered Clouds
10:56 AM 81.0 °F 83.8 °F 68.0 °F 65% 29.96 in 10.0 mi ENE 13.8 mph - N/A   Scattered Clouds
11:56 AM 82.9 °F 85.8 °F 68.0 °F 60% 29.93 in 10.0 mi ENE 13.8 mph - N/A   Scattered Clouds
12:56 PM 84.0 °F 86.5 °F 66.9 °F 56% 29.91 in 10.0 mi ENE 13.8 mph - N/A   Scattered Clouds
1:56 PM 82.9 °F 85.0 °F 66.0 °F 56% 29.88 in 10.0 mi NE 11.5 mph - N/A   Scattered Clouds
2:56 PM 82.9 °F 85.4 °F 66.9 °F 58% 29.88 in 10.0 mi ENE 10.4 mph - N/A   Scattered Clouds
3:56 PM 82.0 °F 84.5 °F 66.9 °F 60% 29.89 in 10.0 mi NE 9.2 mph - N/A   Scattered Clouds
4:56 PM 81.0 °F 83.3 °F 66.9 °F 62% 29.91 in 10.0 mi NE 8.1 mph - N/A   Scattered Clouds
5:56 PM 81.0 °F 83.0 °F 66.0 °F 60% 29.93 in 10.0 mi NNE 8.1 mph - N/A   Scattered Clouds
6:56 PM 80.1 °F 81.9 °F 64.9 °F 60% 29.95 in 10.0 mi NNE 6.9 mph - N/A   Scattered Clouds
7:56 PM 79.0 °F - 66.0 °F 64% 29.96 in 10.0 mi ENE 4.6 mph - N/A   Scattered Clouds
8:56 PM 80.1 °F 82.7 °F 68.0 °F 67% 29.98 in 10.0 mi ENE 9.2 mph - N/A   Scattered Clouds
9:56 PM 80.1 °F 82.7 °F 68.0 °F 67% 29.99 in 10.0 mi ENE 6.9 mph - N/A   Scattered Clouds
10:56 PM 80.1 °F 82.7 °F 68.0 °F 67% 29.98 in 10.0 mi NE 9.2 mph - N/A   Scattered Clouds
11:56 PM 77.0 °F - 68.0 °F 74% 29.97 in 10.0 mi ESE 3.5 mph - N/A   Scattered Clouds